CDT,Max TemperatureF,Mean TemperatureF,Min TemperatureF,Max Dew PointF,MeanDew PointF,Min DewpointF,Max Humidity, Mean Humidity, Min Humidity, Max Sea Level PressureIn, Mean Sea Level PressureIn, Min Sea Level PressureIn, Max VisibilityMiles, Mean VisibilityMiles, Min VisibilityMiles, Max Wind SpeedMPH, Mean Wind SpeedMPH, Max Gust SpeedMPH,PrecipitationIn, CloudCover, Events, WindDirDegrees
2014-4-1,19,12,5,10,7,1,92,76,58,30.13,29.96,29.73,10,8,1,32,19,38,0.02,3,Snow,316
2014-4-2,37,19,1,23,12,-2,92,71,45,30.20,30.15,30.12,10,10,10,9,2,,0.01,0,,33
2014-4-3,35,32,28,30,25,19,93,76,60,30.13,30.02,29.96,10,9,0,10,5,,0.00,7,Snow,71
2014-4-4,37,32,26,28,27,25,93,84,70,30.03,29.98,29.92,10,10,7,17,10,18,0.00,7,,314
2014-4-5,50,37,24,39,30,23,93,80,57,30.00,29.89,29.82,10,10,7,18,10,24,0.00,4,,185
2014-4-6,55,42,28,45,35,27,93,80,58,29.85,29.81,29.77,10,8,2,14,2,16,0.11,2,Rain-Thunderstorm,160
2014-4-7,48,40,32,39,35,28,100,84,66,29.93,29.86,29.79,10,8,0,17,7,21,0.01,4,Fog-Rain,299
2014-4-8,48,39,30,34,29,27,93,73,46,30.05,29.97,29.83,10,10,7,15,10,18,0.00,4,,299
2014-4-9,66,52,37,52,37,27,81,67,55,29.82,29.57,29.40,10,10,7,23,15,36,0.05,2,Rain-Thunderstorm,207
2014-4-10,51,42,33,34,27,21,81,59,35,29.87,29.75,29.62,10,10,10,22,14,30,0.00,1,,280
2014-4-11,55,42,30,36,31,27,100,71,44,29.97,29.91,29.86,10,10,10,15,7,17,0.00,2,,285
2014-4-12,53,43,32,43,34,25,93,77,62,29.95,29.81,29.72,10,10,7,16,9,29,0.00,7,Rain-Snow,113
2014-4-13,30,26,21,30,20,10,100,80,59,30.16,30.04,29.86,10,10,2,25,17,33,0.00,6,,323
2014-4-14,26,19,12,12,8,3,79,59,40,30.19,30.16,30.13,10,10,2,22,15,31,0.00,3,Snow,328
2014-4-15,35,20,6,18,7,0,92,59,32,30.17,30.08,29.99,10,10,10,9,4,16,0.00,1,Snow,358
2014-4-16,41,34,24,18,11,7,59,43,31,30.24,30.09,30.01,10,10,10,17,10,26,0.00,4,,62
2014-4-17,44,30,17,19,13,9,79,51,23,30.32,30.28,30.24,10,10,10,9,5,,0.00,0,,357
2014-4-18,51,36,21,25,20,9,74,51,32,30.30,30.20,29.97,10,10,10,24,7,40,0.00,4,,115
2014-4-19,64,52,37,43,34,25,81,56,28,30.01,29.87,29.77,10,10,10,30,21,40,0.00,2,Rain,206
2014-4-20,69,48,26,39,31,21,100,53,25,30.04,29.98,29.86,10,10,10,13,2,25,0.00,0,,182
2014-4-21,53,42,30,36,31,25,87,64,43,30.13,30.04,29.90,10,10,10,23,10,33,0.00,3,,298
2014-4-22,60,42,23,36,26,18,87,57,27,30.16,30.09,30.01,10,9,4,12,1,,0.00,0,,86
2014-4-23,48,40,32,37,28,19,100,64,34,30.03,29.94,29.84,10,10,4,21,11,28,0.25,4,Rain-Snow-Thunderstorm,125
2014-4-24,37,34,32,37,34,30,100,97,93,29.87,29.76,29.69,10,6,1,13,8,20,0.58,8,Rain-Snow-Thunderstorm,119
2014-4-25,48,39,30,45,35,30,100,91,76,29.97,29.82,29.68,10,9,2,12,4,12,0.00,6,,10
2014-4-26,51,40,28,37,31,27,93,72,47,30.02,29.96,29.91,10,10,10,18,7,28,0.00,0,,99
2014-4-27,44,38,32,36,30,25,93,75,60,29.92,29.81,29.72,10,9,2,30,17,45,0.12,7,Rain,93
2014-4-28,39,36,33,37,34,30,93,88,81,29.92,29.75,29.67,10,8,2,26,19,40,0.31,8,Rain-Snow,91
2014-4-29,51,42,32,34,29,25,93,65,41,29.98,29.95,29.91,10,10,10,24,13,31,0.00,2,,30
2014-4-30,41,37,33,37,34,30,100,92,81,29.96,29.92,29.91,10,8,2,23,15,29,0.02,8,Rain,358